Wind_Speed
31 35 35 33 33 35 30 25 15 10 9 8 8 8 9 9 10 13 17 22 26 29 31 33 35 37 38 40 43 44 46 43 39 37 49 66 80 98 108 115 123 126 127 123 124 134 130
30 30 32 36 29 30 33 32 26 19 11 7 6 6 7 9 11 15 18 23 26 28 31 33 34 36 38 41 44 46 43 39 41 38 35 41 58 76 89 102 105 111 117 133 131 126 137
31 29 29 32 33 26 26 28 29 25 21 17 14 12 12 12 13 16 19 23 28 29 31 32 35 38 42 45 49 47 45 51 52 49 44 42 47 55 63 69 78 93 110 118 114 139 135
28 31 30 28 29 30 28 26 24 24 25 23 21 17 15 16 17 20 22 24 29 30 30 32 36 38 44 48 49 51 56 59 60 60 56 50 48 49 51 50 58 68 84 102 113 121 124
26 28 28 27 25 25 26 26 26 25 24 22 18 15 17 18 19 20 22 26 29 30 30 34 37 40 44 48 52 54 58 62 64 66 62 58 54 55 58 49 33 42 55 74 97 109 119
28 24 29 29 23 25 25 26 26 25 24 22 21 19 19 20 21 21 24 27 30 31 30 34 38 39 44 48 51 55 59 63 66 66 67 66 64 61 65 53 36 26 35 50 67 90 107
31 28 24 28 23 23 28 27 24 28 26 26 27 26 23 21 21 22 25 28 30 32 33 36 40 42 46 48 50 56 59 62 64 65 65 64 65 57 58 52 38 25 22 35 47 64 84
36 32 27 22 21 23 24 25 29 30 28 27 28 27 23 22 22 25 27 28 31 31 34 38 39 42 43 44 47 51 55 58 60 61 61 64 62 56 57 60 44 27 17 21 35 46 63
38 36 29 23 19 22 24 24 28 28 30 30 29 26 23 23 24 26 25 27 30 33 34 37 35 37 36 37 43 47 47 52 57 58 61 63 61 61 60 60 55 39 24 12 20 33 47
38 38 30 24 19 22 22 26 27 28 31 30 30 28 26 25 25 26 25 29 29 31 32 34 31 32 31 39 43 44 47 52 56 61 63 64 65 66 63 64 61 51 35 20 7 16 33
37 41 34 24 22 23 24 26 29 30 30 31 33 32 29 28 26 26 26 28 26 28 31 30 29 31 36 39 44 49 53 54 55 61 63 65 66 67 67 64 63 62 52 36 20 5 15
37 39 36 28 24 25 26 28 30 30 34 36 36 35 32 30 27 25 25 25 24 25 28 28 27 33 33 43 45 50 54 57 57 58 62 66 67 66 67 67 67 66 62 53 37 19 6
35 40 36 31 27 27 29 30 34 38 39 40 38 32 27 24 24 23 21 21 20 24 25 25 28 31 36 44 45 50 55 57 57 58 62 64 67 70 69 69 66 66 65 58 52 32 15
32 39 38 33 30 27 28 34 37 40 42 39 30 27 24 21 17 16 15 16 17 22 24 23 29 30 37 43 46 47 54 59 57 63 65 65 65 67 69 68 67 64 62 60 57 52 36
31 34 36 34 31 28 30 36 41 44 39 32 28 24 20 15 11 9 10 12 17 20 23 23 26 34 39 43 45 46 50 55 61 62 65 67 69 70 71 69 68 67 65 63 60 52 44
28 30 34 35 29 28 34 39 43 40 32 27 25 22 20 17 13 11 9 14 18 22 24 26 34 39 41 43 46 48 51 54 61 64 65 65 69 71 72 73 71 70 68 62 57 55 50
24 26 30 35 30 27 30 37 42 38 33 29 26 24 22 20 18 13 17 20 22 24 29 31 35 39 44 47 48 49 53 56 60 62 65 68 67 68 71 72 72 73 70 70 62 54 49
25 21 26 30 30 25 27 35 39 40 37 33 28 24 21 22 20 24 25 27 28 29 32 37 40 42 45 49 49 50 53 58 61 62 64 63 68 67 66 68 71 73 73 72 69 61 54
23 19 21 24 29 24 28 28 35 39 40 38 32 30 28 29 34 35 34 34 34 35 36 39 39 41 44 47 50 53 57 60 63 66 64 65 66 65 64 63 66 70 71 73 75 70 60
23 18 19 21 24 25 24 26 28 31 35 37 35 33 34 33 31 29 29 33 35 35 37 38 40 43 44 47 49 52 55 59 66 65 67 68 71 70 73 67 62 66 69 71 71 72 68
23 22 17 19 22 23 22 24 24 25 28 30 33 32 29 29 32 34 35 35 34 35 35 38 41 44 46 46 48 49 54 58 64 66 69 71 73 72 70 73 66 65 66 67 69 70 70
26 24 19 17 19 21 22 22 24 26 25 24 25 27 30 31 30 31 33 35 35 36 35 37 39 41 42 46 48 50 51 55 61 65 68 69 69 75 74 72 76 68 69 66 69 69 70
28 26 24 17 18 20 22 22 22 23 23 22 26 26 26 28 30 31 31 31 34 36 35 35 37 40 41 43 47 51 53 55 60 63 65 69 68 71 74 76 84 80 72 71 68 68 69
30 29 28 24 21 20 21 23 25 22 24 24 25 25 26 26 27 29 32 32 33 31 33 36 38 38 41 42 49 52 53 55 59 62 64 65 66 70 76 76 79 88 85 75 73 71 72
31 30 29 30 28 22 20 22 25 26 28 27 27 29 28 27 29 28 31 35 33 28 30 38 41 42 48 45 49 49 48 53 56 60 66 68 72 72 75 78 80 80 86 87 83 79 78
33 34 33 31 32 28 22 22 23 26 28 29 30 33 36 36 34 37 36 36 34 33 38 43 43 46 46 45 48 51 52 53 56 60 65 68 73 75 78 80 80 81 85 87 89 86 82
37 37 37 34 36 33 27 23 23 24 26 27 29 31 37 38 39 40 36 35 36 37 41 43 44 45 46 46 49 51 56 58 62 66 68 71 72 76 76 79 82 85 81 88 92 91 90
40 39 41 40 39 37 34 30 25 25 25 28 29 32 34 37 36 37 39 39 39 39 41 44 45 45 50 48 52 57 57 60 62 67 69 74 74 79 79 80 84 85 86 89 92 97 96
43 41 44 44 43 42 38 37 31 29 30 30 31 31 31 33 37 38 38 39 41 40 39 45 46 48 53 54 57 60 62 65 65 66 71 71 77 79 82 83 86 88 88 91 94 96 102
Wind_Direction
15 22 21 23 28 30 32 29 14 352 339 333 318 310 315 321 326 321 313 308 311 318 320 321 325 321 319 318 315 312 310 307 301 284 266 260 257 252 252 251 253 247 245 242 233 222 226
9 9 17 19 21 26 29 30 28 23 9 4 8 5 353 344 333 324 322 319 323 324 324 328 328 327 326 325 324 321 324 327 331 323 304 279 259 256 256 255 255 252 249 247 246 233 227
8 9 10 17 19 19 23 29 31 33 31 24 14 2 354 352 349 336 330 328 325 325 327 331 331 331 332 333 334 333 337 343 340 337 328 308 289 274 267 263 259 253 250 245 243 241 233
8 4 8 12 16 18 21 18 14 12 15 24 28 22 9 354 343 336 334 333 328 327 331 336 332 336 338 339 339 342 344 342 341 343 341 333 315 303 297 287 270 258 245 245 246 238 237
0 6 2 8 7 8 8 13 18 18 16 8 3 359 352 348 343 338 335 337 335 339 334 341 337 342 342 344 345 343 341 340 342 342 345 344 338 331 329 326 291 265 251 239 234 238 237
355 359 359 359 5 2 7 10 6 7 11 9 3 357 350 344 344 344 340 339 340 344 347 342 345 345 344 350 348 343 341 343 343 345 348 349 348 348 345 338 323 290 258 244 233 231 231
354 348 353 351 355 357 352 3 1 352 349 345 346 345 338 332 336 339 341 339 340 346 354 348 351 348 353 353 347 344 344 344 347 350 348 350 355 352 353 350 345 322 273 248 240 228 227
356 351 345 348 344 344 348 353 350 351 353 349 344 342 335 332 329 332 337 339 338 347 358 354 352 350 356 351 347 347 348 349 354 354 353 355 355 358 4 8 0 349 311 257 239 233 226
357 353 347 338 340 341 343 342 346 349 349 344 345 340 335 329 327 329 336 340 339 349 358 355 352 355 357 349 348 348 354 358 0 359 0 358 0 6 10 17 17 9 360 317 243 231 228
360 355 353 345 342 340 339 338 342 341 344 342 342 341 337 330 328 328 332 338 340 350 358 356 352 0 356 353 354 358 359 2 2 5 5 4 7 10 15 17 23 25 15 10 325 233 223
360 359 356 345 342 342 341 341 338 339 342 340 334 329 327 325 326 325 332 336 343 356 358 358 358 7 3 10 12 12 8 5 8 10 9 14 13 15 16 18 22 27 26 24 11 321 224
357 359 356 355 354 349 343 341 339 339 337 330 324 321 320 317 322 325 329 337 349 3 359 360 7 8 16 11 13 13 10 13 14 15 18 20 18 19 20 20 22 24 28 29 23 12 319
357 1 359 357 354 351 348 346 348 341 333 327 324 326 322 316 318 325 332 340 2 10 1 5 14 15 22 21 19 21 25 25 23 22 23 24 27 24 25 23 23 24 27 29 32 31 16
356 360 3 358 356 355 355 352 347 339 336 335 337 334 328 322 320 331 335 351 16 9 7 20 29 34 26 25 26 22 25 25 25 24 26 27 28 27 27 27 27 24 25 28 32 31 30
353 360 2 359 357 357 1 356 351 347 344 344 344 343 344 340 345 350 356 13 24 12 22 34 29 29 25 25 27 23 20 20 21 22 24 27 29 29 29 28 29 29 25 27 26 30 33
350 356 360 1 1 2 4 11 4 356 358 4 10 13 14 20 23 30 25 32 32 35 39 40 35 32 29 28 29 28 26 23 20 19 21 23 29 29 30 30 30 29 30 28 27 26 27
339 348 357 359 3 9 16 13 13 10 14 16 22 27 35 41 36 32 45 44 51 51 48 43 36 29 29 29 26 22 23 23 22 21 20 21 22 27 29 28 31 32 30 29 26 26 27
334 343 351 3 3 0 6 11 20 21 22 24 25 30 36 47 47 55 55 63 59 55 47 39 36 30 27 28 29 24 19 17 19 22 22 20 19 20 25 27 28 30 29 30 30 26 23
324 336 344 357 357 3 1 12 18 32 35 38 44 54 59 67 73 73 70 59 53 46 40 38 33 29 27 28 25 24 25 21 18 18 22 21 22 20 20 23 25 26 28 26 27 27 24
313 325 333 347 356 358 354 0 20 31 38 37 44 54 59 60 59 57 56 53 47 42 37 33 29 26 23 21 20 23 22 22 20 17 14 19 21 19 17 17 22 21 22 23 23 24 23
301 309 319 333 348 349 352 358 0 19 31 33 36 39 44 38 42 41 40 37 35 34 30 27 24 22 19 15 14 17 18 18 18 18 18 14 17 17 15 15 16 19 18 18 17 18 19
289 296 305 322 333 343 341 343 349 357 10 24 27 26 21 21 24 27 23 21 21 21 19 16 18 15 14 15 12 10 10 11 11 11 13 14 12 18 16 14 15 13 15 17 15 14 14
279 290 292 303 316 328 337 332 340 341 346 2 2 8 15 15 11 10 10 9 7 4 10 12 8 7 8 9 7 5 3 6 10 10 10 14 9 8 15 16 15 15 11 13 14 13 11
266 280 288 291 298 313 324 327 322 327 331 330 339 346 349 355 357 357 357 353 355 359 360 359 1 359 0 360 1 1 1 1 4 8 11 9 14 7 8 11 11 12 11 9 9 9 7
258 268 279 287 291 292 307 315 322 320 319 326 325 331 332 332 334 339 344 336 343 345 349 349 350 353 352 356 0 0 0 358 357 360 5 5 7 8 6 8 8 7 7 7 6 7 7
247 259 270 277 286 286 288 300 310 315 320 323 322 327 330 329 328 330 330 337 333 335 338 345 348 348 351 353 354 353 354 354 355 360 1 1 3 5 4 3 4 3 2 2 2 2 2
242 250 260 269 274 278 281 286 296 303 309 310 310 315 325 325 328 330 327 329 331 328 333 339 344 344 349 347 349 351 351 351 353 353 355 358 356 360 358 359 1 360 357 358 359 357 360
237 247 255 261 265 269 272 275 284 292 297 304 307 312 316 317 322 326 321 323 330 326 329 335 337 339 342 341 342 343 345 347 348 346 347 352 351 352 355 354 355 354 355 354 353 354 355
238 242 251 256 261 265 266 269 275 284 290 292 303 310 312 313 313 317 322 321 323 325 324 328 331 334 338 340 337 337 339 343 344 345 344 348 347 345 348 350 348 349 349 350 349 350 351
Height
10716 10710 10704 10698 10693 10689 10684 10681 10678 10675 10673 10672 10671 10670 10670 10669 10667 10665 10663 10660 10657 10653 10649 10644 10639 10632 10626 10619 10613 10605 10598 10590 10582 10572 10565 10558 10552 10546 10541 10541 10540 10545 10549 10555 10573 10584 10598
10716 10712 10706 10701 10696 10692 10687 10683 10679 10676 10673 10671 10670 10668 10667 10666 10665 10663 10660 10656 10653 10649 10644 10639 10632 10627 10620 10613 10604 10595 10586 10576 10563 10554 10544 10535 10527 10519 10511 10509 10505 10505 10507 10515 10527 10556 10571
10718 10713 10708 10703 10698 10694 10689 10686 10683 10679 10676 10672 10670 10669 10667 10665 10664 10662 10659 10655 10650 10646 10641 10635 10627 10621 10613 10605 10595 10584 10573 10560 10549 10539 10526 10515 10504 10496 10489 10481 10467 10462 10458 10469 10486 10501 10525
10718 10713 10708 10704 10700 10696 10691 10687 10684 10681 10677 10674 10671 10669 10667 10665 10662 10659 10655 10651 10647 10642 10636 10630 10623 10615 10606 10596 10587 10575 10561 10550 10538 10524 10511 10496 10482 10470 10457 10445 10426 10420 10422 10426 10434 10454 10473
10718 10712 10708 10705 10702 10698 10693 10689 10685 10681 10678 10675 10672 10669 10666 10663 10660 10656 10652 10647 10642 10637 10631 10624 10617 10609 10601 10589 10577 10567 10555 10543 10529 10514 10498 10481 10463 10446 10428 10409 10397 10389 10387 10390 10400 10410 10434
10718 10712 10708 10704 10701 10697 10693 10689 10684 10681 10678 10675 10672 10668 10664 10660 10656 10652 10647 10642 10637 10632 10626 10619 10611 10605 10594 10583 10572 10561 10547 10534 10520 10505 10487 10469 10452 10428 10410 10393 10378 10368 10365 10364 10372 10383 10399
10717 10711 10707 10703 10700 10696 10691 10687 10683 10679 10676 10672 10669 10665 10660 10656 10653 10649 10644 10639 10633 10628 10621 10614 10606 10598 10586 10577 10566 10554 10541 10528 10514 10498 10482 10467 10447 10431 10410 10384 10368 10357 10352 10350 10352 10362 10373
10717 10710 10705 10702 10698 10694 10689 10685 10681 10677 10672 10668 10664 10660 10656 10653 10649 10645 10640 10634 10629 10625 10618 10610 10603 10594 10583 10573 10563 10551 10540 10527 10511 10497 10480 10461 10447 10428 10406 10380 10362 10351 10344 10341 10341 10345 10355
10717 10710 10704 10699 10695 10692 10688 10683 10679 10675 10670 10665 10660 10655 10651 10648 10644 10641 10636 10631 10625 10621 10617 10609 10601 10591 10584 10576 10567 10555 10540 10525 10511 10497 10479 10462 10445 10425 10403 10384 10365 10350 10342 10337 10336 10337 10343
10716 10709 10702 10696 10693 10690 10686 10682 10677 10671 10666 10661 10656 10652 10648 10643 10640 10636 10632 10627 10622 10618 10614 10609 10600 10593 10586 10576 10565 10552 10539 10525 10511 10493 10478 10462 10442 10422 10404 10385 10370 10356 10343 10335 10332 10333 10337
10715 10709 10702 10696 10692 10688 10683 10679 10673 10667 10661 10657 10652 10647 10643 10639 10636 10632 10629 10624 10620 10616 10611 10607 10599 10591 10584 10574 10562 10550 10537 10524 10510 10493 10479 10460 10443 10425 10408 10392 10374 10359 10347 10339 10334 10332 10333
10714 10709 10702 10695 10690 10686 10681 10675 10669 10663 10658 10651 10645 10640 10636 10632 10629 10627 10624 10621 10617 10614 10609 10603 10596 10590 10582 10571 10561 10550 10538 10523 10509 10499 10483 10465 10448 10431 10414 10397 10381 10367 10355 10347 10339 10334 10333
10714 10708 10701 10695 10689 10684 10679 10673 10667 10660 10651 10644 10636 10631 10628 10625 10623 10621 10620 10617 10615 10611 10606 10601 10595 10588 10581 10573 10563 10553 10542 10532 10519 10504 10487 10472 10454 10435 10420 10404 10391 10375 10365 10357 10346 10341 10337
10713 10707 10700 10695 10689 10684 10678 10672 10664 10654 10644 10635 10628 10623 10620 10618 10617 10617 10616 10615 10612 10608 10605 10600 10595 10590 10582 10574 10565 10555 10546 10535 10523 10510 10495 10478 10461 10444 10428 10414 10399 10388 10375 10364 10354 10346 10341
10712 10707 10700 10694 10688 10683 10678 10671 10660 10649 10637 10630 10623 10618 10615 10614 10614 10613 10613 10612 10609 10606 10603 10599 10595 10590 10583 10576 10567 10558 10548 10536 10524 10512 10498 10483 10466 10451 10436 10423 10411 10397 10385 10373 10365 10357 10352
10712 10706 10700 10694 10688 10683 10678 10669 10657 10645 10636 10628 10622 10618 10615 10613 10612 10612 10612 10611 10609 10606 10603 10599 10595 10588 10582 10575 10567 10559 10550 10539 10527 10514 10500 10487 10473 10457 10443 10432 10419 10406 10395 10387 10375 10365 10356
10710 10705 10699 10694 10689 10684 10678 10669 10658 10646 10636 10630 10624 10619 10616 10614 10614 10614 10612 10611 10610 10608 10604 10600 10594 10588 10581 10574 10565 10557 10550 10541 10529 10517 10503 10489 10476 10465 10451 10441 10428 10416 10406 10394 10385 10376 10367
10708 10704 10699 10694 10689 10683 10678 10670 10661 10650 10640 10632 10627 10623 10620 10617 10616 10614 10613 10612 10611 10608 10604 10599 10593 10588 10580 10573 10565 10557 10548 10538 10530 10520 10509 10497 10483 10470 10459 10448 10435 10424 10413 10405 10396 10385 10374
10705 10702 10697 10692 10689 10682 10678 10671 10664 10656 10647 10639 10633 10627 10624 10622 10619 10617 10616 10615 10611 10607 10602 10597 10592 10586 10580 10573 10565 10557 10548 10538 10528 10519 10509 10499 10488 10479 10465 10454 10442 10431 10421 10411 10400 10392 10385
10701 10698 10695 10690 10687 10682 10677 10672 10666 10660 10653 10647 10641 10635 10633 10630 10627 10623 10620 10616 10611 10606 10601 10596 10590 10584 10577 10570 10564 10557 10548 10539 10530 10518 10506 10496 10486 10474 10464 10456 10445 10435 10425 10417 10408 10399 10391
10696 10695 10691 10688 10683 10681 10676 10671 10667 10661 10656 10650 10645 10642 10638 10635 10630 10625 10621 10616 10611 10606 10601 10595 10589 10582 10575 10568 10560 10553 10546 10538 10530 10520 10509 10496 10485 10475 10467 10458 10448 10439 10429 10419 10410 10403 10394
10690 10689 10687 10684 10680 10677 10674 10670 10665 10661 10656 10651 10647 10643 10638 10634 10629 10624 10620 10615 10611 10606 10600 10595 10588 10582 10575 10567 10560 10551 10544 10536 10528 10520 10511 10500 10488 10478 10469 10459 10451 10441 10432 10423 10413 10404 10395
10683 10683 10682 10680 10677 10673 10669 10667 10664 10659 10655 10650 10646 10641 10637 10632 10627 10623 10618 10613 10608 10603 10598 10592 10585 10579 10572 10565 10558 10550 10541 10535 10528 10518 10510 10501 10492 10482 10473 10462 10451 10443 10430 10421 10413 10405 10395
10675 10675 10675 10674 10672 10669 10665 10662 10659 10656 10652 10648 10644 10639 10635 10630 10625 10620 10615 10610 10605 10600 10593 10587 10582 10576 10570 10562 10556 10548 10539 10529 10523 10516 10508 10500 10492 10481 10471 10460 10452 10440 10431 10421 10411 10403 10393
10665 10667 10667 10666 10665 10663 10661 10657 10654 10651 10647 10644 10639 10634 10630 10626 10622 10618 10613 10608 10602 10597 10592 10586 10580 10573 10567 10560 10554 10546 10538 10530 10520 10512 10505 10495 10487 10481 10470 10460 10448 10438 10431 10421 10411 10400 10390
10654 10657 10657 10657 10656 10656 10653 10651 10648 10645 10641 10638 10633 10629 10624 10620 10616 10612 10607 10602 10597 10592 10586 10581 10575 10569 10563 10556 10548 10541 10534 10525 10518 10510 10500 10491 10481 10472 10466 10454 10446 10435 10426 10419 10411 10400 10389
10642 10644 10646 10647 10646 10646 10645 10643 10640 10638 10635 10632 10628 10623 10618 10613 10610 10606 10601 10595 10590 10585 10580 10575 10569 10562 10556 10550 10543 10535 10526 10517 10508 10500 10494 10486 10476 10466 10457 10449 10442 10431 10421 10412 10403 10393 10383
10629 10632 10634 10635 10635 10635 10635 10633 10631 10629 10628 10624 10622 10618 10614 10607 10604 10601 10595 10590 10586 10581 10576 10570 10564 10556 10550 10544 10537 10530 10524 10513 10503 10491 10486 10477 10468 10458 10451 10443 10435 10425 10415 10403 10392 10383 10373
10616 10618 10620 10621 10623 10623 10623 10622 10620 10618 10617 10615 10612 10610 10607 10602 10595 10591 10589 10583 10578 10575 10570 10562 10555 10549 10543 10536 10528 10521 10513 10505 10493 10485 10474 10469 10459 10448 10439 10432 10422 10413 10403 10393 10382 10373 10362